Content
SEND FEEDBACK

Daily
Averages
Monthly
Summary
South Korea

KASI-RI, SOUTH KOREA


Home > Asia > South Korea
Elevation: 174 feet     Latitude: 33 14N     Longitude: 126 34E

WEATHER
 
SELECT A DAY
Number of Records: 159,266;   Date Range: 7/1/96 - 8/10/14
 
SHARE

PRINT THIS DATA

[ ← Previous Day ]
WEATHER ALMANAC - FEBRUARY 13, 2013
[ Next Day → ]
[ °C ]   °F
Weather ElementAverageHighLow
Temperature38.7 °F41 °F (1:00 am)35.6 °F (7:00 am)
Dewpoint20.7 °F24.8 °F (1:00 am)14 °F (11:00 am)
Humidity49 %60 % (10:00 pm)36 % (11:00 am)
Barometer30.34 in30.39 in (9:00 am)30.30 in (1:00 am)
Wind Speed7.3 mph11.5 mph (2:00 am)
Weather ElementAverage
Visibility5.9 mi
Wind DirectionESE (100.4 °)

Weather ElementTotal
Precipitation---
Heating Degree Days26.7 (Base 65)
Averaged from 23 records on February 13, 2013
WEATHER CONDITIONS BREAKOUT
WIND DIRECTION BREAKOUT
WEATHER BY HOUR - FEBRUARY 13, 2013
[ °C ]   °F
Local TimeTemperatureDewpointHumidityBarometerVisibilityWind DirectionWind SpeedGust SpeedPrecipitationEventsConditions
1:00 AM41.0 °F24.8 °F53 %30.30 in5.0 miNorth (350°)10.4 mphMostly Cloudy
2:00 AM39.2 °F24.8 °F56 %30.33 in5.0 miNorth (360°)11.5 mphMostly Cloudy
3:00 AM39.2 °F23.0 °F52 %30.33 in5.0 miNNE (20°)9.2 mphMostly Cloudy
4:00 AM39.2 °F24.8 °F56 %30.33 in5.0 miNNE (20°)9.2 mphMostly Cloudy
5:00 AM37.4 °F21.2 °F52 %30.33 in6.2 miNNE (30°)10.4 mphMostly Cloudy
6:00 AM37.4 °F21.2 °F52 %30.33 in6.2 miNNE (20°)10.4 mphMostly Cloudy
7:00 AM35.6 °F19.4 °F52 %30.36 in6.2 miNE (40°)9.2 mphMostly Cloudy
8:00 AM35.6 °F19.4 °F52 %30.36 in6.2 miNNE (30°)8.1 mphScattered Clouds
9:00 AM37.4 °F19.4 °F48 %30.39 in6.2 miNNE (30°)8.1 mphScattered Clouds
10:00 AM37.4 °F17.6 °F45 %30.39 in6.2 miNE (50°)8.1 mphScattered Clouds
11:00 AM39.2 °F14.0 °F36 %30.39 inNNE (30°)6.9 mphClear
12:00 PM39.2 °F15.8 °F39 %30.39 inNNE (30°)6.9 mphClear
1:00 PM39.2 °F14.0 °F36 %30.36 inNNE (20°)6.9 mphClear
2:00 PM39.2 °F15.8 °F39 %30.33 inNorth (10°)6.9 mphClear
3:00 PM41.0 °F17.6 °F39 %30.30 inNorth (10°)5.8 mphClear
4:00 PM41.0 °F17.6 °F39 %30.33 inNNW (340°)4.6 mphClear
5:00 PM41.0 °F23.0 °F49 %30.33 in6.2 miNorth (10°)4.6 mphPartly Cloudy
6:00 PM39.2 °F23.0 °F52 %30.30 in6.2 miENE (70°)3.5 mphScattered Clouds
7:00 PM39.2 °F23.0 °F52 %30.33 in6.2 miSE (140°)3.5 mphScattered Clouds
8:00 PM39.2 °F23.0 °F52 %30.33 in6.2 miSouth (180°)4.6 mphMostly Cloudy
9:00 PM39.2 °F24.8 °F56 %30.33 in6.2 miSouth (180°)5.8 mphMostly Cloudy
10:00 PM37.4 °F24.8 °F60 %30.33 in6.2 miSouth (170°)6.9 mphMostly Cloudy
11:00 PM37.4 °F24.8 °F60 %30.33 in6.2 miSouth (170°)5.8 mphMostly Cloudy
Hourly data recorded from RKPC, located miles away from Kasi-ri, South Korea







STORIES FROM OUR PARTNERS